| time (UTC) | temp F | wind direction | speed knots | gust knots | rain 1hr in | rain 24hr in | rain mn in | humidity % | barometer mb |
| 20260505204543 | 81 | 67 | 7.8 | 13.9 | 0.00 | 0.00 | 0.00 | 29 | 1009.8 |
| 20260505203046 | 81 | 89 | 10.4 | 14.8 | 0.00 | 0.00 | 0.00 | 28 | 1010.0 |
| 20260505201543 | 80 | 8 | 6.1 | 14.8 | 0.00 | 0.00 | 0.00 | 29 | 1010.0 |
| 20260505200029 | 81 | 74 | 12.2 | 15.6 | 0.00 | 0.00 | 0.00 | 30 | 1010.0 |
| 20260505194524 | 80 | 55 | 7.8 | 13.9 | 0.00 | 0.00 | 0.00 | 32 | 1010.1 |
| 20260505193039 | 80 | 43 | 9.6 | 19.1 | 0.00 | 0.00 | 0.00 | 31 | 1010.1 |
| 20260505191522 | 79 | 28 | 8.7 | 14.8 | 0.00 | 0.00 | 0.00 | 32 | 1010.3 |
| 20260505190029 | 78 | 41 | 11.3 | 17.4 | 0.00 | 0.00 | 0.00 | 32 | 1010.2 |
| 20260505184519 | 77 | 3 | 9.6 | 16.5 | 0.00 | 0.00 | 0.00 | 33 | 1010.4 |
| 20260505183017 | 77 | 60 | 10.4 | 17.4 | 0.00 | 0.00 | 0.00 | 34 | 1010.4 |
| 20260505181557 | 75 | 51 | 10.4 | 16.5 | 0.00 | 0.00 | 0.00 | 35 | 1010.5 |
| 20260505180053 | 75 | 65 | 11.3 | 16.5 | 0.00 | 0.00 | 0.00 | 36 | 1010.4 |
| 20260505174538 | 75 | 36 | 12.2 | 18.2 | 0.00 | 0.00 | 0.00 | 36 | 1010.5 |
| 20260505173037 | 73 | 41 | 13.0 | 20.0 | 0.00 | 0.00 | 0.00 | 37 | 1010.5 |
| 20260505171609 | 73 | 23 | 11.3 | 18.2 | 0.00 | 0.00 | 0.00 | 37 | 1010.5 |
| 20260505170012 | 72 | 54 | 11.3 | 15.6 | 0.00 | 0.00 | 0.00 | 38 | 1010.5 |
| 20260505164548 | 72 | 43 | 13.0 | 18.2 | 0.00 | 0.00 | 0.00 | 38 | 1010.4 |
| 20260505163046 | 71 | 30 | 12.2 | 14.8 | 0.00 | 0.00 | 0.00 | 39 | 1010.4 |
| 20260505161525 | 70 | 46 | 10.4 | 15.6 | 0.00 | 0.00 | 0.00 | 41 | 1010.2 |
| 20260505153111 | 67 | 81 | 10.4 | 17.4 | 0.00 | 0.00 | 0.00 | 46 | 1010.1 |
| 20260505151546 | 67 | 91 | 13.0 | 15.6 | 0.00 | 0.00 | 0.00 | 46 | 1010.0 |
| 20260505124608 | 62 | 40 | 4.3 | 7.8 | 0.00 | 0.00 | 0.00 | 54 | 1008.4 |
| 20260505123104 | 62 | 16 | 5.2 | 9.6 | 0.00 | 0.00 | 0.00 | 54 | 1008.2 |
| 20260505121540 | 61 | 4 | 7.0 | 10.4 | 0.00 | 0.00 | 0.00 | 57 | 1008.0 |
| 20260505120021 | 60 | 4 | 8.7 | 11.3 | 0.00 | 0.00 | 0.00 | 59 | 1008.0 |
| 20260505114517 | 59 | 354 | 8.7 | 11.3 | 0.00 | 0.00 | 0.00 | 62 | 1007.8 |
| 20260505113058 | 59 | 349 | 8.7 | 10.4 | 0.00 | 0.00 | 0.00 | 64 | 1007.8 |
| 20260505111602 | 59 | 22 | 3.5 | 4.3 | 0.00 | 0.00 | 0.00 | 63 | 1007.6 |
| 20260505101520 | 62 | 82 | 5.2 | 5.2 | 0.00 | 0.00 | 0.00 | 58 | 1006.5 |
| 20260505100005 | 63 | 353 | 7.0 | 7.8 | 0.00 | 0.00 | 0.00 | 57 | 1006.4 |
| 20260505094501 | 63 | 336 | 0.0 | 0.0 | 0.00 | 0.00 | 0.00 | 57 | 1006.3 |
| 20260505093048 | 62 | 262 | 0.0 | 0.0 | 0.00 | 0.00 | 0.00 | 57 | 1006.2 |
| 20260505091548 | 63 | 25 | 0.0 | 1.7 | 0.00 | 0.00 | 0.00 | 56 | 1006.2 |
| 20260505090042 | 63 | 58 | 3.5 | 4.3 | 0.00 | 0.00 | 0.00 | 55 | 1005.9 |
| 20260505084527 | 67 | 352 | 0.9 | 3.5 | 0.00 | 0.00 | 0.00 | 47 | 1005.8 |
| 20260505083011 | 69 | 320 | 0.9 | 4.3 | 0.00 | 0.00 | 0.00 | 42 | 1005.8 |
| 20260505081508 | 69 | 308 | 0.0 | 0.0 | 0.00 | 0.00 | 0.00 | 42 | 1005.8 |
| 20260505080055 | 69 | 320 | 0.0 | 0.0 | 0.00 | 0.00 | 0.00 | 43 | 1005.8 |
| 20260505074550 | 68 | 353 | 0.0 | 0.9 | 0.00 | 0.00 | 0.00 | 45 | 1005.7 |
| 20260505073045 | 67 | 20 | 0.9 | 3.5 | 0.00 | 0.00 | 0.00 | 45 | 1005.7 |
| 20260505071534 | 68 | 85 | 5.2 | 7.0 | 0.00 | 0.00 | 0.00 | 44 | 1005.5 |
| 20260505070019 | 69 | 255 | 2.6 | 5.2 | 0.00 | 0.00 | 0.00 | 41 | 1005.1 |
| 20260505064513 | 72 | 318 | 5.2 | 8.7 | 0.00 | 0.00 | 0.00 | 36 | 1004.8 |
| 20260505063100 | 70 | 301 | 2.6 | 6.1 | 0.00 | 0.00 | 0.00 | 39 | 1004.7 |
| 20260505061601 | 69 | 321 | 4.3 | 7.8 | 0.00 | 0.00 | 0.00 | 43 | 1004.8 |
| 20260505060038 | 69 | 336 | 0.0 | 2.6 | 0.00 | 0.00 | 0.00 | 40 | 1004.6 |
| 20260505054538 | 74 | 19 | 0.0 | 5.2 | 0.00 | 0.00 | 0.00 | 32 | 1004.4 |
| 20260505053021 | 72 | 29 | 0.9 | 7.8 | 0.00 | 0.00 | 0.00 | 34 | 1004.5 |
| 20260505051523 | 74 | 343 | 7.0 | 10.4 | 0.00 | 0.00 | 0.00 | 31 | 1004.3 |
| 20260505041553 | 82 | 333 | 5.2 | 7.8 | 0.00 | 0.00 | 0.00 | 22 | 1004.0 |
| 20260505040029 | 82 | 323 | 3.5 | 5.2 | 0.00 | 0.00 | 0.00 | 24 | 1003.9 |
| 20260505034526 | 82 | 320 | 3.5 | 4.3 | 0.00 | 0.00 | 0.00 | 23 | 1003.7 |
| 20260505033008 | 82 | 315 | 4.3 | 5.2 | 0.00 | 0.00 | 0.00 | 24 | 1003.6 |
| 20260505031508 | 82 | 316 | 4.3 | 5.2 | 0.00 | 0.00 | 0.00 | 25 | 1003.5 |
| 20260505030050 | 82 | 320 | 0.0 | 0.0 | 0.00 | 0.00 | 0.00 | 24 | 1003.5 |
| 20260505024550 | 82 | 328 | 0.0 | 0.0 | 0.00 | 0.00 | 0.00 | 25 | 1003.3 |
| 20260505023039 | 83 | 340 | 0.0 | 0.0 | 0.00 | 0.00 | 0.00 | 26 | 1003.3 |
| 20260505021534 | 85 | 276 | 0.0 | 0.0 | 0.00 | 0.00 | 0.00 | 25 | 1003.3 |
| 20260505020018 | 85 | 69 | 0.0 | 0.0 | 0.00 | 0.00 | 0.00 | 26 | 1003.4 |
| 20260505014513 | 86 | 103 | 0.0 | 0.9 | 0.00 | 0.00 | 0.00 | 26 | 1003.4 |
| 20260505013055 | 87 | 176 | 0.0 | 5.2 | 0.00 | 0.00 | 0.00 | 23 | 1003.5 |
| 20260505011603 | 86 | 146 | 2.6 | 6.1 | 0.00 | 0.00 | 0.00 | 23 | 1003.6 |
| 20260505010041 | 87 | 158 | 2.6 | 7.0 | 0.00 | 0.00 | 0.00 | 24 | 1003.7 |
| 20260505004544 | 87 | 179 | 0.0 | 7.0 | 0.00 | 0.00 | 0.00 | 25 | 1003.7 |
| 20260505003040 | 88 | 168 | 2.6 | 7.0 | 0.00 | 0.00 | 0.00 | 24 | 1003.7 |
| 20260505001542 | 88 | 158 | 4.3 | 7.8 | 0.00 | 0.00 | 0.00 | 24 | 1003.9 |
| 20260505000040 | 87 | 160 | 2.6 | 8.7 | 0.00 | 0.00 | 0.00 | 22 | 1003.9 |
| 20260504234548 | 88 | 115 | 4.3 | 9.6 | 0.00 | 0.00 | 0.00 | 22 | 1003.9 |
| 20260504233035 | 88 | 127 | 5.2 | 11.3 | 0.00 | 0.00 | 0.00 | 22 | 1003.9 |
| 20260504231536 | 88 | 68 | 0.9 | 7.0 | 0.00 | 0.00 | 0.00 | 19 | 1003.9 |
| 20260504230021 | 88 | 158 | 2.6 | 8.7 | 0.00 | 0.00 | 0.00 | 21 | 1004.1 |
| 20260504224520 | 88 | 117 | 3.5 | 8.7 | 0.00 | 0.00 | 0.00 | 21 | 1004.3 |
| 20260504223018 | 88 | 131 | 0.9 | 8.7 | 0.00 | 0.00 | 0.00 | 19 | 1004.4 |
| 20260504221519 | 87 | 158 | 4.3 | 11.3 | 0.00 | 0.00 | 0.00 | 23 | 1004.5 |
| 20260504220013 | 87 | 113 | 4.3 | 7.8 | 0.00 | 0.00 | 0.00 | 24 | 1004.8 |
| 20260504214512 | 88 | 48 | 7.8 | 11.3 | 0.00 | 0.00 | 0.00 | 17 | 1005.0 |
| 20260504213024 | 87 | 311 | 2.6 | 9.6 | 0.00 | 0.00 | 0.00 | 18 | 1005.2 |
| 20260504211512 | 87 | 100 | 7.8 | 10.4 | 0.00 | 0.00 | 0.00 | 20 | 1005.3 |
| 20260504210047 | 87 | 40 | 5.2 | 14.8 | 0.00 | 0.00 | 0.00 | 19 | 1005.6 |